Total_Precipitation_Accumulation
0.01 0.01 0.02 0.00 0.01 0.00 0.00 0.00 0.00 0.00 0.00 0.00 0.00 0.00 0.00 0.00 0.00 0.00 0.00 0.00 0.00 0.00 0.00 0.00 0.00 0.00 0.03 0.03 0.01 0.01 0.01 0.04 0.01 0.00 0.06 0.14 0.13 0.16 0.19 0.25 0.36 0.41 0.48 0.38
0.02 0.02 0.02 0.01 0.02 0.00 0.00 0.00 0.00 0.00 0.00 0.00 0.00 0.00 0.00 0.00 0.00 0.00 0.00 0.00 0.00 0.00 0.00 0.02 0.01 0.01 0.01 0.01 0.00 0.01 0.03 0.06 0.05 0.03 0.09 0.08 0.06 0.06 0.09 0.16 0.31 0.34 0.37 0.45
0.03 0.03 0.02 0.01 0.02 0.00 0.00 0.00 0.00 0.00 0.00 0.00 0.00 0.00 0.00 0.00 0.00 0.00 0.00 0.00 0.00 0.00 0.00 0.01 0.02 0.00 0.00 0.00 0.01 0.07 0.12 0.16 0.08 0.04 0.05 0.09 0.06 0.05 0.05 0.10 0.22 0.22 0.28 0.22
0.04 0.04 0.02 0.03 0.05 0.00 0.00 0.00 0.00 0.00 0.00 0.00 0.00 0.00 0.00 0.00 0.00 0.00 0.00 0.00 0.00 0.00 0.01 0.00 0.00 0.00 0.00 0.01 0.02 0.03 0.06 0.04 0.01 0.02 0.03 0.04 0.04 0.07 0.06 0.07 0.15 0.14 0.21 0.20
0.04 0.04 0.02 0.05 0.09 0.01 0.00 0.00 0.00 0.02 0.01 0.00 0.00 0.00 0.00 0.00 0.00 0.01 0.00 0.01 0.01 0.01 0.01 0.01 0.02 0.01 0.01 0.01 0.02 0.05 0.06 0.06 0.03 0.04 0.04 0.05 0.04 0.02 0.04 0.06 0.10 0.11 0.14 0.17
0.05 0.04 0.04 0.08 0.14 0.06 0.05 0.04 0.02 0.11 0.06 0.01 0.02 0.01 0.00 0.00 0.01 0.01 0.00 0.01 0.02 0.02 0.01 0.02 0.01 0.01 0.01 0.01 0.01 0.02 0.05 0.04 0.04 0.04 0.07 0.10 0.08 0.04 0.02 0.07 0.12 0.13 0.13 0.15
0.06 0.04 0.07 0.10 0.15 0.21 0.15 0.15 0.25 0.31 0.11 0.03 0.02 0.00 0.01 0.01 0.03 0.05 0.03 0.04 0.07 0.03 0.01 0.01 0.00 0.00 0.01 0.01 0.00 0.01 0.04 0.05 0.08 0.07 0.09 0.11 0.06 0.04 0.03 0.04 0.11 0.14 0.14 0.15
0.04 0.05 0.10 0.11 0.09 0.19 0.23 0.20 0.37 0.52 0.26 0.04 0.03 0.04 0.08 0.08 0.09 0.15 0.09 0.04 0.05 0.05 0.06 0.07 0.05 0.03 0.04 0.03 0.02 0.03 0.02 0.07 0.10 0.06 0.05 0.05 0.04 0.02 0.03 0.04 0.09 0.11 0.12 0.12
0.06 0.11 0.09 0.07 0.07 0.10 0.17 0.13 0.22 0.61 0.59 0.11 0.06 0.12 0.12 0.16 0.11 0.05 0.04 0.02 0.03 0.07 0.08 0.08 0.08 0.06 0.06 0.13 0.17 0.10 0.08 0.10 0.15 0.09 0.07 0.07 0.04 0.02 0.02 0.03 0.04 0.05 0.07 0.10
0.11 0.08 0.05 0.05 0.07 0.11 0.19 0.07 0.20 0.62 0.69 0.21 0.17 0.23 0.14 0.07 0.07 0.07 0.03 0.03 0.01 0.03 0.07 0.08 0.06 0.05 0.05 0.06 0.09 0.07 0.07 0.08 0.11 0.08 0.14 0.08 0.02 0.01 0.02 0.03 0.04 0.02 0.03 0.07
0.05 0.02 0.02 0.05 0.11 0.13 0.21 0.08 0.16 0.45 0.53 0.24 0.14 0.15 0.16 0.13 0.08 0.08 0.06 0.04 0.04 0.06 0.06 0.05 0.06 0.08 0.08 0.03 0.03 0.04 0.04 0.04 0.05 0.05 0.08 0.07 0.03 0.03 0.04 0.04 0.05 0.02 0.02 0.03
0.01 0.02 0.05 0.10 0.12 0.09 0.17 0.03 0.03 0.16 0.40 0.43 0.20 0.21 0.16 0.11 0.08 0.09 0.06 0.06 0.04 0.09 0.09 0.08 0.09 0.08 0.04 0.03 0.03 0.02 0.03 0.04 0.04 0.04 0.04 0.05 0.05 0.05 0.07 0.04 0.03 0.02 0.02 0.01
0.01 0.04 0.08 0.09 0.06 0.06 0.09 0.02 0.03 0.14 0.47 0.57 0.36 0.22 0.20 0.13 0.11 0.15 0.17 0.22 0.19 0.07 0.04 0.08 0.07 0.05 0.05 0.03 0.02 0.03 0.03 0.04 0.04 0.04 0.06 0.06 0.07 0.03 0.02 0.02 0.02 0.01 0.01 0.01
0.02 0.06 0.07 0.03 0.05 0.04 0.03 0.01 0.01 0.10 0.17 0.31 0.29 0.19 0.18 0.15 0.08 0.12 0.13 0.12 0.06 0.04 0.01 0.02 0.04 0.05 0.03 0.03 0.03 0.04 0.05 0.04 0.03 0.03 0.05 0.04 0.04 0.02 0.02 0.01 0.01 0.00 0.00 0.00
0.04 0.05 0.03 0.01 0.11 0.03 0.00 0.02 0.10 0.31 0.46 0.43 0.22 0.17 0.15 0.07 0.09 0.12 0.14 0.16 0.15 0.07 0.08 0.05 0.06 0.07 0.04 0.04 0.02 0.04 0.05 0.06 0.05 0.05 0.04 0.04 0.04 0.02 0.01 0.01 0.01 0.01 0.01 0.00
0.02 0.06 0.02 0.03 0.16 0.05 0.02 0.13 0.12 0.11 0.19 0.21 0.22 0.13 0.06 0.03 0.02 0.04 0.08 0.10 0.09 0.06 0.03 0.06 0.07 0.12 0.07 0.02 0.02 0.07 0.08 0.07 0.06 0.05 0.04 0.03 0.03 0.03 0.01 0.01 0.01 0.03 0.01 0.00
0.02 0.09 0.07 0.01 0.01 0.00 0.02 0.08 0.10 0.11 0.28 0.21 0.17 0.10 0.02 0.00 0.05 0.00 0.01 0.01 0.01 0.01 0.02 0.04 0.05 0.05 0.01 0.01 0.04 0.07 0.06 0.07 0.05 0.04 0.03 0.03 0.02 0.02 0.02 0.01 0.01 0.02 0.00 0.00
0.04 0.18 0.27 0.12 0.00 0.00 0.01 0.01 0.03 0.10 0.12 0.05 0.09 0.07 0.04 0.01 0.04 0.07 0.01 0.00 0.00 0.00 0.02 0.04 0.03 0.02 0.00 0.04 0.08 0.07 0.05 0.04 0.03 0.02 0.03 0.03 0.02 0.02 0.01 0.01 0.00 0.00 0.00 0.00
0.13 0.16 0.05 0.00 0.00 0.00 0.00 0.02 0.00 0.00 0.02 0.03 0.03 0.09 0.07 0.01 0.04 0.13 0.05 0.01 0.01 0.01 0.01 0.03 0.01 0.01 0.05 0.09 0.07 0.05 0.05 0.05 0.04 0.01 0.03 0.02 0.01 0.02 0.01 0.01 0.00 0.00 0.00 0.00
0.01 0.00 0.00 0.00 0.00 0.00 0.00 0.00 0.00 0.00 0.00 0.00 0.05 0.05 0.06 0.05 0.04 0.08 0.08 0.02 0.01 0.01 0.04 0.01 0.00 0.06 0.09 0.08 0.07 0.06 0.04 0.05 0.04 0.02 0.02 0.02 0.01 0.01 0.01 0.01 0.01 0.02 0.01 0.01
0.00 0.00 0.00 0.00 0.00 0.00 0.00 0.00 0.00 0.00 0.00 0.00 0.00 0.01 0.03 0.02 0.08 0.11 0.08 0.05 0.03 0.01 0.05 0.01 0.01 0.04 0.07 0.06 0.04 0.04 0.03 0.03 0.03 0.03 0.04 0.04 0.02 0.03 0.01 0.01 0.01 0.01 0.00 0.01
0.00 0.00 0.00 0.00 0.00 0.00 0.00 0.00 0.00 0.00 0.02 0.00 0.00 0.01 0.01 0.01 0.07 0.10 0.06 0.05 0.02 0.04 0.03 0.00 0.02 0.07 0.06 0.02 0.03 0.03 0.02 0.01 0.01 0.01 0.01 0.01 0.01 0.02 0.01 0.01 0.01 0.00 0.00 0.00
0.00 0.00 0.00 0.00 0.00 0.00 0.00 0.01 0.00 0.00 0.01 0.01 0.04 0.02 0.01 0.03 0.05 0.05 0.02 0.01 0.05 0.02 0.00 0.02 0.06 0.05 0.03 0.02 0.02 0.01 0.01 0.01 0.01 0.01 0.01 0.00 0.01 0.01 0.02 0.01 0.01 0.01 0.00 0.00
0.00 0.00 0.00 0.00 0.01 0.02 0.02 0.03 0.03 0.02 0.02 0.02 0.03 0.02 0.02 0.02 0.01 0.02 0.01 0.03 0.01 0.00 0.01 0.03 0.04 0.04 0.03 0.01 0.01 0.01 0.01 0.01 0.01 0.01 0.01 0.01 0.01 0.02 0.00 0.00 0.01 0.01 0.00 0.00
0.00 0.00 0.00 0.01 0.02 0.01 0.00 0.01 0.01 0.01 0.02 0.03 0.02 0.01 0.00 0.00 0.00 0.00 0.01 0.00 0.01 0.02 0.04 0.04 0.03 0.04 0.02 0.01 0.01 0.01 0.01 0.01 0.01 0.01 0.01 0.00 0.01 0.01 0.00 0.00 0.00 0.00 0.00 0.00
0.00 0.00 0.00 0.00 0.00 0.00 0.00 0.00 0.00 0.00 0.01 0.01 0.01 0.00 0.00 0.00 0.00 0.00 0.01 0.00 0.02 0.04 0.04 0.03 0.04 0.02 0.01 0.01 0.01 0.01 0.01 0.01 0.01 0.01 0.00 0.01 0.01 0.00 0.00 0.00 0.00 0.00 0.00 0.00
0.00 0.01 0.00 0.00 0.01 0.01 0.00 0.00 0.00 0.00 0.00 0.00 0.00 0.00 0.00 0.00 0.00 0.01 0.01 0.03 0.04 0.05 0.03 0.02 0.02 0.03 0.01 0.01 0.01 0.01 0.01 0.01 0.01 0.00 0.00 0.00 0.00 0.00 0.00 0.00 0.00 0.00 0.00 0.00